Location: USNO
(38.9242°N, 77.0663°W)
Time: 06:49:16
(UTC-05:00)

Envisat - Pass Details

Date: 12 October 2017
Orbit: 764 x 766 km, 98.2° (Epoch: 17 December)

Event Time Altitude Azimuth Distance (km) Brightness Sun altitude
Exits shadow 19:53:46 21° 60° (ENE) 1,662 4.3 -16.4°
Drops below altitude 10° 19:57:13 10° 18° (NNE) 2,311 5.3 -17.0°
Sets 20:00:00 0° 3° (N) 3,242 6.3 -17.6°
